Year,Month,Day,Hour,Minute,Value (Times are PST for windgust in km/hr)
2017,06,07,00,00,3.20
2017,06,07,00,01,3.20
2017,06,07,00,02,3.20
2017,06,07,00,03,1.60
2017,06,07,00,04,4.80
2017,06,07,00,05,4.80
2017,06,07,00,06,4.80
2017,06,07,00,07,3.20
2017,06,07,00,08,3.20
2017,06,07,00,09,3.20
2017,06,07,00,10,3.20
2017,06,07,00,11,6.40
2017,06,07,00,12,8.10
2017,06,07,00,13,6.40
2017,06,07,00,14,6.40
2017,06,07,00,15,6.40
2017,06,07,00,16,4.80
2017,06,07,00,17,6.40
2017,06,07,00,18,6.40
2017,06,07,00,19,6.40
2017,06,07,00,20,4.80
2017,06,07,00,21,3.20
2017,06,07,00,22,3.20
2017,06,07,00,23,3.20
2017,06,07,00,24,3.20
2017,06,07,00,25,4.80
2017,06,07,00,26,4.80
2017,06,07,00,27,6.40
2017,06,07,00,28,6.40
2017,06,07,00,29,6.40
2017,06,07,00,30,4.80
2017,06,07,00,31,3.20
2017,06,07,00,32,4.80
2017,06,07,00,33,3.20
2017,06,07,00,34,1.60
2017,06,07,00,35,3.20
2017,06,07,00,36,1.60
2017,06,07,00,37,1.60
2017,06,07,00,38,3.20
2017,06,07,00,39,1.60
2017,06,07,00,43,3.20
2017,06,07,00,44,3.20
2017,06,07,00,45,3.20
2017,06,07,00,51,1.60
2017,06,07,01,00,1.60
2017,06,07,01,35,3.20
2017,06,07,01,36,3.20
2017,06,07,01,37,3.20
2017,06,07,01,38,4.80
2017,06,07,01,39,4.80
2017,06,07,01,40,1.60
2017,06,07,01,41,1.60
2017,06,07,01,45,1.60
2017,06,07,01,46,4.80
2017,06,07,01,47,4.80
2017,06,07,01,48,3.20
2017,06,07,01,49,3.20
2017,06,07,01,50,1.60
2017,06,07,01,51,1.60
2017,06,07,08,05,8.10
2017,06,07,08,11,8.10
2017,06,07,08,12,12.90
2017,06,07,08,13,6.40
2017,06,07,08,14,9.60
2017,06,07,08,15,11.30
2017,06,07,08,16,11.30
2017,06,07,08,17,3.20
2017,06,07,08,18,8.10
2017,06,07,08,19,4.80
2017,06,07,08,20,11.30
2017,06,07,08,21,6.40
2017,06,07,08,22,6.40
2017,06,07,08,23,6.40
2017,06,07,08,24,4.80
2017,06,07,08,25,11.30
2017,06,07,08,26,12.90
2017,06,07,08,27,11.30
2017,06,07,08,28,12.90
2017,06,07,08,29,11.30
2017,06,07,08,30,11.30
2017,06,07,08,31,11.30
2017,06,07,08,32,8.10
2017,06,07,08,33,4.80
2017,06,07,08,34,8.10
2017,06,07,08,35,4.80
2017,06,07,08,36,6.40
2017,06,07,08,37,6.40
2017,06,07,08,38,6.40
2017,06,07,08,39,4.80
2017,06,07,08,40,8.10
2017,06,07,08,41,6.40
2017,06,07,08,42,4.80
2017,06,07,08,43,3.20
2017,06,07,08,44,4.80
2017,06,07,08,45,11.30
2017,06,07,08,46,12.90
2017,06,07,08,47,11.30
2017,06,07,08,48,11.30
2017,06,07,08,49,12.90
2017,06,07,08,50,11.30
2017,06,07,08,51,9.60
2017,06,07,08,52,8.10
2017,06,07,08,53,6.40
2017,06,07,08,54,9.60
2017,06,07,08,55,8.10
2017,06,07,08,56,11.30
2017,06,07,08,57,8.10
2017,06,07,08,58,6.40
2017,06,07,08,59,1.60
2017,06,07,09,00,9.60
2017,06,07,09,01,6.40
2017,06,07,09,02,6.40
2017,06,07,09,03,4.80
2017,06,07,09,04,8.10
2017,06,07,09,05,8.10
2017,06,07,09,06,4.80
2017,06,07,09,07,4.80
2017,06,07,09,08,4.80
2017,06,07,09,09,3.20
2017,06,07,09,10,4.80
2017,06,07,09,11,3.20
2017,06,07,09,12,3.20
2017,06,07,09,13,1.60
2017,06,07,09,15,1.60
2017,06,07,09,16,1.60
2017,06,07,09,17,3.20
2017,06,07,09,18,4.80
2017,06,07,09,19,1.60
2017,06,07,09,20,4.80
2017,06,07,09,21,4.80
2017,06,07,09,22,4.80
2017,06,07,09,23,3.20
2017,06,07,09,24,1.60
2017,06,07,09,25,1.60
2017,06,07,09,26,1.60
2017,06,07,09,27,3.20
2017,06,07,09,28,3.20
2017,06,07,09,29,1.60
2017,06,07,09,30,4.80
2017,06,07,09,31,4.80
2017,06,07,09,32,3.20
2017,06,07,09,33,4.80
2017,06,07,09,34,1.60
2017,06,07,09,35,1.60
2017,06,07,09,36,1.60
2017,06,07,09,37,4.80
2017,06,07,09,38,1.60
2017,06,07,09,39,3.20
2017,06,07,09,40,1.60
2017,06,07,09,41,1.60
2017,06,07,09,42,1.60
2017,06,07,09,43,3.20
2017,06,07,09,44,8.10
2017,06,07,09,45,4.80
2017,06,07,09,46,3.20
2017,06,07,09,47,3.20
2017,06,07,09,48,3.20
2017,06,07,09,49,1.60
2017,06,07,09,50,3.20
2017,06,07,09,51,4.80
2017,06,07,09,52,4.80
2017,06,07,09,53,3.20
2017,06,07,09,54,1.60
2017,06,07,09,55,1.60
2017,06,07,09,56,3.20
2017,06,07,09,57,1.60
2017,06,07,09,58,1.60
2017,06,07,09,59,1.60
2017,06,07,10,01,1.60
2017,06,07,10,02,3.20
2017,06,07,10,03,3.20
2017,06,07,10,04,3.20
2017,06,07,10,05,3.20
2017,06,07,10,06,3.20
2017,06,07,10,07,1.60
2017,06,07,10,08,3.20
2017,06,07,10,09,1.60
2017,06,07,10,11,1.60
2017,06,07,10,12,3.20
2017,06,07,10,13,4.80
2017,06,07,10,14,4.80
2017,06,07,10,15,6.40
2017,06,07,10,16,6.40
2017,06,07,10,17,3.20
2017,06,07,10,18,4.80
2017,06,07,10,19,3.20
2017,06,07,10,20,1.60
2017,06,07,10,21,4.80
2017,06,07,10,22,4.80
2017,06,07,10,23,4.80
2017,06,07,10,24,4.80
2017,06,07,10,25,3.20
2017,06,07,10,26,3.20
2017,06,07,10,27,1.60
2017,06,07,10,28,1.60
2017,06,07,10,29,1.60
2017,06,07,10,30,3.20
2017,06,07,10,31,1.60
2017,06,07,10,32,3.20
2017,06,07,10,33,3.20
2017,06,07,10,34,3.20
2017,06,07,10,35,3.20
2017,06,07,10,36,4.80
2017,06,07,10,37,3.20
2017,06,07,10,38,3.20
2017,06,07,10,39,1.60
2017,06,07,10,40,1.60
2017,06,07,10,41,1.60
2017,06,07,10,42,1.60
2017,06,07,10,43,1.60
2017,06,07,10,44,1.60
2017,06,07,10,45,3.20
2017,06,07,10,46,3.20
2017,06,07,10,47,4.80
2017,06,07,10,48,4.80
2017,06,07,10,49,3.20
2017,06,07,10,50,3.20
2017,06,07,10,51,3.20
2017,06,07,10,52,3.20
2017,06,07,10,53,3.20
2017,06,07,10,54,1.60
2017,06,07,10,55,3.20
2017,06,07,10,56,3.20
2017,06,07,10,57,4.80
2017,06,07,10,58,1.60
2017,06,07,10,59,4.80
2017,06,07,11,00,4.80
2017,06,07,11,01,4.80
2017,06,07,11,02,6.40
2017,06,07,11,03,4.80
2017,06,07,11,04,4.80
2017,06,07,11,05,4.80
2017,06,07,11,06,4.80
2017,06,07,11,07,6.40
2017,06,07,11,08,6.40
2017,06,07,11,09,4.80
2017,06,07,11,10,3.20
2017,06,07,11,11,8.10
2017,06,07,11,12,4.80
2017,06,07,11,13,1.60
2017,06,07,11,14,4.80
2017,06,07,11,15,3.20
2017,06,07,11,16,6.40
2017,06,07,11,17,8.10
2017,06,07,11,18,9.60
2017,06,07,11,19,8.10
2017,06,07,11,20,11.30
2017,06,07,11,21,8.10
2017,06,07,11,22,6.40
2017,06,07,11,23,8.10
2017,06,07,11,24,9.60
2017,06,07,11,25,9.60
2017,06,07,11,26,6.40
2017,06,07,11,27,8.10
2017,06,07,11,28,4.80
2017,06,07,11,29,4.80
2017,06,07,11,30,4.80
2017,06,07,11,31,3.20
2017,06,07,11,32,8.10
2017,06,07,11,33,8.10
2017,06,07,11,34,8.10
2017,06,07,11,35,6.40
2017,06,07,11,36,9.60
2017,06,07,11,37,8.10
2017,06,07,11,38,8.10
2017,06,07,11,39,8.10
2017,06,07,11,40,9.60
2017,06,07,11,41,9.60
2017,06,07,11,42,11.30
2017,06,07,11,43,9.60
2017,06,07,11,44,8.10
2017,06,07,11,45,3.20
2017,06,07,11,46,3.20
2017,06,07,11,47,4.80
2017,06,07,11,48,4.80
2017,06,07,11,49,6.40
2017,06,07,11,50,6.40
2017,06,07,11,51,8.10
2017,06,07,11,52,11.30
2017,06,07,11,53,4.80
2017,06,07,11,54,6.40
2017,06,07,11,55,4.80
2017,06,07,11,56,6.40
2017,06,07,11,57,4.80
2017,06,07,11,58,3.20
2017,06,07,11,59,3.20
2017,06,07,12,00,6.40
2017,06,07,12,01,4.80
2017,06,07,12,02,9.60
2017,06,07,12,03,8.10
2017,06,07,12,04,6.40
2017,06,07,12,05,8.10
2017,06,07,12,06,11.30
2017,06,07,12,07,8.10
2017,06,07,12,08,8.10
2017,06,07,12,09,4.80
2017,06,07,12,10,11.30
2017,06,07,12,11,11.30
2017,06,07,12,12,6.40
2017,06,07,12,13,9.60
2017,06,07,12,14,6.40
2017,06,07,12,15,6.40
2017,06,07,12,16,8.10
2017,06,07,12,17,4.80
2017,06,07,12,18,4.80
2017,06,07,12,19,6.40
2017,06,07,12,20,8.10
2017,06,07,12,21,4.80
2017,06,07,12,22,6.40
2017,06,07,12,23,8.10
2017,06,07,12,24,4.80
2017,06,07,12,25,6.40
2017,06,07,12,26,6.40
2017,06,07,12,27,6.40
2017,06,07,12,28,4.80
2017,06,07,12,29,4.80
2017,06,07,12,30,4.80
2017,06,07,12,31,6.40
2017,06,07,12,32,6.40
2017,06,07,12,33,6.40
2017,06,07,12,34,9.60
2017,06,07,12,35,8.10
2017,06,07,12,36,6.40
2017,06,07,12,37,8.10
2017,06,07,12,38,9.60
2017,06,07,12,39,12.90
2017,06,07,12,40,8.10
2017,06,07,12,41,6.40
2017,06,07,12,42,6.40
2017,06,07,12,43,6.40
2017,06,07,12,44,6.40
2017,06,07,12,45,6.40
2017,06,07,12,46,4.80
2017,06,07,12,47,12.90
2017,06,07,12,48,9.60
2017,06,07,12,49,12.90
2017,06,07,12,50,8.10
2017,06,07,12,51,8.10
2017,06,07,12,52,12.90
2017,06,07,12,53,11.30
2017,06,07,12,54,14.50
2017,06,07,12,55,16.10
2017,06,07,12,56,8.10
2017,06,07,12,57,9.60
2017,06,07,12,58,8.10
2017,06,07,12,59,6.40
2017,06,07,13,00,8.10
2017,06,07,13,01,12.90
2017,06,07,13,02,11.30
2017,06,07,13,03,9.60
2017,06,07,13,04,9.60
2017,06,07,13,05,8.10
2017,06,07,13,06,9.60
2017,06,07,13,07,6.40
2017,06,07,13,08,12.90
2017,06,07,13,09,14.50
2017,06,07,13,10,16.10
2017,06,07,13,11,14.50
2017,06,07,13,12,14.50
2017,06,07,13,13,11.30
2017,06,07,13,14,9.60
2017,06,07,13,15,12.90
2017,06,07,13,16,11.30
2017,06,07,13,17,9.60
2017,06,07,13,18,9.60
2017,06,07,13,19,6.40
2017,06,07,13,20,6.40
2017,06,07,13,21,4.80
2017,06,07,13,22,6.40
2017,06,07,13,23,11.30
2017,06,07,13,24,8.10
2017,06,07,13,25,11.30
2017,06,07,13,26,9.60
2017,06,07,13,27,12.90
2017,06,07,13,28,14.50
2017,06,07,13,29,11.30
2017,06,07,13,30,6.40
2017,06,07,13,31,9.60
2017,06,07,13,32,11.30
2017,06,07,13,33,11.30
2017,06,07,13,34,9.60
2017,06,07,13,35,11.30
2017,06,07,13,36,12.90
2017,06,07,13,37,11.30
2017,06,07,13,38,9.60
2017,06,07,13,39,12.90
2017,06,07,13,40,12.90
2017,06,07,13,41,11.30
2017,06,07,13,42,11.30
2017,06,07,13,43,8.10
2017,06,07,13,44,8.10
2017,06,07,13,45,4.80
2017,06,07,13,46,8.10
2017,06,07,13,47,6.40
2017,06,07,13,48,8.10
2017,06,07,13,49,11.30
2017,06,07,13,50,9.60
2017,06,07,13,51,6.40
2017,06,07,13,52,4.80
2017,06,07,13,53,11.30
2017,06,07,13,54,8.10
2017,06,07,13,55,9.60
2017,06,07,13,56,6.40
2017,06,07,13,57,11.30
2017,06,07,13,58,8.10
2017,06,07,13,59,6.40
2017,06,07,14,00,9.60
2017,06,07,14,01,8.10
2017,06,07,14,02,11.30
2017,06,07,14,03,11.30
2017,06,07,14,04,9.60
2017,06,07,14,05,14.50
2017,06,07,14,06,11.30
2017,06,07,14,07,12.90
2017,06,07,14,08,14.50
2017,06,07,14,09,12.90
2017,06,07,14,10,11.30
2017,06,07,14,11,12.90
2017,06,07,14,12,11.30
2017,06,07,14,13,11.30
2017,06,07,14,14,9.60
2017,06,07,14,15,12.90
2017,06,07,14,16,12.90
2017,06,07,14,17,11.30
2017,06,07,14,18,9.60
2017,06,07,14,19,4.80
2017,06,07,14,20,8.10
2017,06,07,14,21,9.60
2017,06,07,14,22,8.10
2017,06,07,14,23,6.40
2017,06,07,14,24,8.10
2017,06,07,14,25,9.60
2017,06,07,14,26,3.20
2017,06,07,14,27,6.40
2017,06,07,14,28,11.30
2017,06,07,14,29,9.60
2017,06,07,14,30,11.30
2017,06,07,14,31,8.10
2017,06,07,14,32,8.10
2017,06,07,14,33,8.10
2017,06,07,14,34,9.60
2017,06,07,14,35,6.40
2017,06,07,14,36,6.40
2017,06,07,14,37,9.60
2017,06,07,14,38,11.30
2017,06,07,14,39,8.10
2017,06,07,14,40,4.80
2017,06,07,14,41,4.80
2017,06,07,14,42,9.60
2017,06,07,14,43,8.10
2017,06,07,14,44,11.30
2017,06,07,14,45,8.10
2017,06,07,14,46,8.10
2017,06,07,14,47,6.40
2017,06,07,14,48,8.10
2017,06,07,14,49,6.40
2017,06,07,14,50,9.60
2017,06,07,14,51,9.60
2017,06,07,14,52,8.10
2017,06,07,14,53,6.40
2017,06,07,14,54,6.40
2017,06,07,14,55,4.80
2017,06,07,14,56,3.20
2017,06,07,14,57,1.60
2017,06,07,14,58,8.10
2017,06,07,14,59,6.40
2017,06,07,15,00,6.40
2017,06,07,15,01,9.60
2017,06,07,15,02,8.10
2017,06,07,15,03,4.80
2017,06,07,15,04,9.60
2017,06,07,15,05,6.40
2017,06,07,15,06,8.10
2017,06,07,15,07,3.20
2017,06,07,15,08,6.40
2017,06,07,15,09,8.10
2017,06,07,15,10,6.40
2017,06,07,15,11,4.80
2017,06,07,15,12,6.40
2017,06,07,15,13,6.40
2017,06,07,15,14,8.10
2017,06,07,15,15,4.80
2017,06,07,15,16,8.10
2017,06,07,15,17,6.40
2017,06,07,15,18,4.80
2017,06,07,15,19,3.20
2017,06,07,15,20,3.20
2017,06,07,15,21,6.40
2017,06,07,15,22,4.80
2017,06,07,15,23,6.40
2017,06,07,15,24,4.80
2017,06,07,15,25,3.20
2017,06,07,15,26,4.80
2017,06,07,15,27,3.20
2017,06,07,15,28,4.80
2017,06,07,15,29,3.20
2017,06,07,15,30,11.30
2017,06,07,15,31,8.10
2017,06,07,15,32,6.40
2017,06,07,15,33,3.20
2017,06,07,15,34,3.20
2017,06,07,15,35,3.20
2017,06,07,15,36,4.80
2017,06,07,15,37,3.20
2017,06,07,15,38,3.20
2017,06,07,15,39,4.80
2017,06,07,15,40,3.20
2017,06,07,15,41,3.20
2017,06,07,15,42,8.10
2017,06,07,15,43,9.60
2017,06,07,15,44,12.90
2017,06,07,15,45,12.90
2017,06,07,15,46,14.50
2017,06,07,15,47,12.90
2017,06,07,15,48,8.10
2017,06,07,15,49,8.10
2017,06,07,15,50,9.60
2017,06,07,15,51,11.30
2017,06,07,15,52,8.10
2017,06,07,15,53,8.10
2017,06,07,15,54,4.80
2017,06,07,15,55,11.30
2017,06,07,15,56,8.10
2017,06,07,15,57,8.10
2017,06,07,15,58,9.60
2017,06,07,15,59,11.30
2017,06,07,16,00,11.30
2017,06,07,16,01,12.90
2017,06,07,16,02,11.30
2017,06,07,16,03,11.30
2017,06,07,16,04,9.60
2017,06,07,16,05,4.80
2017,06,07,16,06,8.10
2017,06,07,16,07,8.10
2017,06,07,16,08,4.80
2017,06,07,16,09,4.80
2017,06,07,16,10,3.20
2017,06,07,16,11,8.10
2017,06,07,16,12,8.10
2017,06,07,16,13,9.60
2017,06,07,16,14,8.10
2017,06,07,16,15,6.40
2017,06,07,16,16,6.40
2017,06,07,16,17,3.20
2017,06,07,16,18,1.60
2017,06,07,16,19,3.20
2017,06,07,16,20,9.60
2017,06,07,16,21,11.30
2017,06,07,16,22,8.10
2017,06,07,16,23,8.10
2017,06,07,16,24,6.40
2017,06,07,16,25,4.80
2017,06,07,16,26,6.40
2017,06,07,16,27,9.60
2017,06,07,16,28,8.10
2017,06,07,16,29,6.40
2017,06,07,16,30,6.40
2017,06,07,16,31,6.40
2017,06,07,16,32,8.10
2017,06,07,16,33,4.80
2017,06,07,16,34,4.80
2017,06,07,16,35,9.60
2017,06,07,16,36,6.40
2017,06,07,16,37,8.10
2017,06,07,16,38,8.10
2017,06,07,16,39,8.10
2017,06,07,16,40,3.20
2017,06,07,16,41,6.40
2017,06,07,16,42,4.80
2017,06,07,16,43,3.20
2017,06,07,16,44,6.40
2017,06,07,16,45,4.80
2017,06,07,16,46,3.20
2017,06,07,16,47,4.80
2017,06,07,16,48,9.60
2017,06,07,16,49,8.10
2017,06,07,16,50,6.40
2017,06,07,16,51,4.80
2017,06,07,16,52,6.40
2017,06,07,16,53,6.40
2017,06,07,16,54,4.80
2017,06,07,16,55,4.80
2017,06,07,16,56,4.80
2017,06,07,16,57,4.80
2017,06,07,16,58,3.20
2017,06,07,16,59,4.80
2017,06,07,17,00,4.80
2017,06,07,17,01,4.80
2017,06,07,17,02,9.60
2017,06,07,17,03,6.40
2017,06,07,17,04,3.20
2017,06,07,17,05,3.20
2017,06,07,17,06,4.80
2017,06,07,17,07,3.20
2017,06,07,17,08,4.80
2017,06,07,17,09,4.80
2017,06,07,17,10,4.80
2017,06,07,17,11,4.80
2017,06,07,17,12,6.40
2017,06,07,17,13,4.80
2017,06,07,17,14,8.10
2017,06,07,17,15,6.40
2017,06,07,17,16,6.40
2017,06,07,17,17,4.80
2017,06,07,17,18,9.60
2017,06,07,17,19,9.60
2017,06,07,17,20,6.40
2017,06,07,17,21,3.20
2017,06,07,17,22,3.20
2017,06,07,17,23,1.60
2017,06,07,17,24,3.20
2017,06,07,17,25,3.20
2017,06,07,17,26,3.20
2017,06,07,17,27,4.80
2017,06,07,17,28,8.10
2017,06,07,17,29,6.40
2017,06,07,17,30,8.10
2017,06,07,17,31,8.10
2017,06,07,17,32,9.60
2017,06,07,17,33,14.50
2017,06,07,17,34,12.90
2017,06,07,17,35,11.30
2017,06,07,17,36,6.40
2017,06,07,17,37,6.40
2017,06,07,17,38,6.40
2017,06,07,17,39,6.40
2017,06,07,17,40,6.40
2017,06,07,17,41,6.40
2017,06,07,17,42,4.80
2017,06,07,17,43,4.80
2017,06,07,17,44,4.80
2017,06,07,17,45,4.80
2017,06,07,17,46,6.40
2017,06,07,17,47,8.10
2017,06,07,17,48,3.20
2017,06,07,17,49,3.20
2017,06,07,17,50,3.20
2017,06,07,17,51,1.60
2017,06,07,17,52,1.60
2017,06,07,17,53,1.60
2017,06,07,17,54,3.20
2017,06,07,17,55,4.80
2017,06,07,17,56,4.80
2017,06,07,17,57,1.60
2017,06,07,17,59,1.60
2017,06,07,18,00,1.60
2017,06,07,18,01,3.20
2017,06,07,18,02,3.20
2017,06,07,18,03,3.20
2017,06,07,18,04,4.80
2017,06,07,18,05,4.80
2017,06,07,18,06,3.20
2017,06,07,18,07,3.20
2017,06,07,18,08,3.20
2017,06,07,18,09,3.20
2017,06,07,18,10,3.20
2017,06,07,18,11,3.20
2017,06,07,18,12,3.20
2017,06,07,18,13,3.20
2017,06,07,18,14,1.60
2017,06,07,18,18,1.60
2017,06,07,18,20,1.60
2017,06,07,18,21,1.60
2017,06,07,18,22,3.20
2017,06,07,18,23,3.20
2017,06,07,18,24,3.20
2017,06,07,18,25,3.20
2017,06,07,18,26,3.20
2017,06,07,18,27,3.20
2017,06,07,18,28,1.60
2017,06,07,18,31,1.60
2017,06,07,18,32,3.20
2017,06,07,18,33,4.80
2017,06,07,18,34,4.80
2017,06,07,18,35,6.40
2017,06,07,18,36,6.40
2017,06,07,18,37,3.20
2017,06,07,18,38,1.60
2017,06,07,18,41,1.60
2017,06,07,18,42,4.80
2017,06,07,18,43,4.80
2017,06,07,18,44,3.20
2017,06,07,18,45,3.20
2017,06,07,18,46,3.20
2017,06,07,18,47,1.60
2017,06,07,18,53,1.60
2017,06,07,18,54,3.20
2017,06,07,18,55,1.60
2017,06,07,19,00,1.60
2017,06,07,19,01,1.60
2017,06,07,19,09,1.60
2017,06,07,19,10,1.60
2017,06,07,19,11,1.60
2017,06,07,19,15,1.60
2017,06,07,19,16,1.60
2017,06,07,19,18,1.60
2017,06,07,19,19,1.60
2017,06,07,19,20,1.60
2017,06,07,19,21,1.60
2017,06,07,19,23,1.60
2017,06,07,19,25,1.60
2017,06,07,19,30,1.60
2017,06,07,19,47,1.60
2017,06,07,19,48,1.60
2017,06,07,19,49,1.60
2017,06,07,19,52,1.60
2017,06,07,19,53,4.80
2017,06,07,19,54,4.80
2017,06,07,19,55,4.80
2017,06,07,19,56,1.60
2017,06,07,19,58,1.60
2017,06,07,19,59,1.60
2017,06,07,20,00,1.60
2017,06,07,20,06,1.60
2017,06,07,20,07,4.80
2017,06,07,20,08,6.40
2017,06,07,20,09,4.80
2017,06,07,20,10,4.80
2017,06,07,20,11,4.80
2017,06,07,20,12,3.20
2017,06,07,20,13,3.20
2017,06,07,20,14,1.60
2017,06,07,20,15,1.60
2017,06,07,20,21,1.60
2017,06,07,20,22,3.20
2017,06,07,20,23,4.80
2017,06,07,20,24,3.20
2017,06,07,20,25,1.60
2017,06,07,20,26,3.20
2017,06,07,20,27,3.20
2017,06,07,20,31,1.60
2017,06,07,20,32,1.60
2017,06,07,20,33,1.60
2017,06,07,20,34,4.80
2017,06,07,20,35,4.80
2017,06,07,20,36,3.20
2017,06,07,20,37,3.20
2017,06,07,20,38,3.20
2017,06,07,20,39,3.20
2017,06,07,20,40,3.20
2017,06,07,20,41,1.60
2017,06,07,20,49,1.60
2017,06,07,20,50,3.20
2017,06,07,20,51,1.60
2017,06,07,20,59,1.60
2017,06,07,21,00,4.80
2017,06,07,21,01,3.20
2017,06,07,21,02,3.20
2017,06,07,21,03,1.60
2017,06,07,21,07,1.60
2017,06,07,21,08,1.60
2017,06,07,21,09,1.60
2017,06,07,21,10,3.20
2017,06,07,21,11,1.60
2017,06,07,21,12,3.20
2017,06,07,21,13,3.20
2017,06,07,21,14,1.60
2017,06,07,21,15,1.60
2017,06,07,21,16,1.60
2017,06,07,21,17,3.20
2017,06,07,21,18,1.60
2017,06,07,21,19,1.60
2017,06,07,21,20,3.20
2017,06,07,21,21,4.80
2017,06,07,21,22,3.20
2017,06,07,21,23,3.20
2017,06,07,21,24,4.80
2017,06,07,21,25,6.40
2017,06,07,21,26,1.60
2017,06,07,21,30,1.60
2017,06,07,21,31,1.60
2017,06,07,21,36,6.40
2017,06,07,21,37,3.20
2017,06,07,21,39,1.60
2017,06,07,21,40,1.60
2017,06,07,21,41,3.20
2017,06,07,21,42,1.60
2017,06,07,21,43,1.60
2017,06,07,21,44,1.60
2017,06,07,21,45,1.60
2017,06,07,21,46,1.60
2017,06,07,21,55,1.60
2017,06,07,21,56,3.20
2017,06,07,21,57,3.20
2017,06,07,21,58,3.20
2017,06,07,21,59,1.60
2017,06,07,22,00,1.60
2017,06,07,22,01,1.60
2017,06,07,22,06,3.20
2017,06,07,22,07,4.80
2017,06,07,22,08,6.40
2017,06,07,22,09,4.80
2017,06,07,22,10,1.60
2017,06,07,22,14,1.60
2017,06,07,22,15,1.60
2017,06,07,22,16,1.60
2017,06,07,22,19,1.60
2017,06,07,22,41,4.80
2017,06,07,22,42,3.20
2017,06,07,22,44,8.10
2017,06,07,22,45,8.10
2017,06,07,22,46,9.60
2017,06,07,22,47,12.90
2017,06,07,22,48,8.10
2017,06,07,22,49,4.80
2017,06,07,22,50,3.20
2017,06,07,22,51,3.20
2017,06,07,22,52,4.80
2017,06,07,22,53,1.60
2017,06,07,22,54,1.60
2017,06,07,22,55,3.20
2017,06,07,23,13,1.60
2017,06,07,23,17,1.60
2017,06,07,23,18,1.60
